Location: Eschentzwiller
(47.7125°N, 7.3981°E)
Time: 01:10:23
(UTC+00:00)

BREEZE-M R/B - Pass Details

Date: 27 October 2020
Orbit: 283 x 23019 km, 49.2° (Epoch: 25 November)

Event Time Altitude Azimuth Distance (km) Brightness Sun altitude
Rises 17:13:57 0° 267° (W) 8,521 11.6 -9.6°
Reaches altitude 10° 17:22:20 10° 270° (W) 5,009 9.7 -11.0°
Maximum altitude 17:31:57 74° 355° (N) 730 3.9 -12.6°
Enters shadow 17:33:54 22° 79° (E) 1,132 4.3 -12.9°
